This is the latest recevied weather packets stored in our database for station/object W4GAP. If no packets are shown the sender has not sent any weather packets the latest 10 day(s).
| Time | Temp. | Humidity | Pressure | Rain* | Wind** | Luminosity | Snow |
|---|---|---|---|---|---|---|---|
| 1778177736 | 18.33° C | 89% | 1009.4 hPa | 0 mm | - | 101 W/m² | - |
| 1778177432 | 18.33° C | 88% | 1009.4 hPa | 0 mm | - | 115 W/m² | - |
| 1778177128 | 18.33° C | 89% | 1009.5 hPa | 0 mm | - | 38 W/m² | - |
| 1778176825 | 18.33° C | 88% | 1009.6 hPa | 0 mm | - | 36 W/m² | - |
| 1778176521 | 18.89° C | 89% | 1009.5 hPa | 0 mm | - | 34 W/m² | - |
| 1778176219 | 18.89° C | 89% | 1009.7 hPa | 0 mm | - | 48 W/m² | - |
| 1778175916 | 18.89° C | 89% | 1009.7 hPa | 0 mm | - | 23 W/m² | - |
| 1778175614 | 18.89° C | 88% | 1009.5 hPa | 0 mm | - | 42 W/m² | - |
| 1778175310 | 18.89° C | 89% | 1009.4 hPa | 0 mm | - | 56 W/m² | - |
| 1778175008 | 18.89° C | 89% | 1009.6 hPa | 0 mm | - | 132 W/m² | - |
| 1778174703 | 18.89° C | 89% | 1009.5 hPa | 0 mm | - | 46 W/m² | - |
| 1778174400 | 18.89° C | 91% | 1009.1 hPa | 0 mm | - | 92 W/m² | - |
| 1778174096 | 18.89° C | 93% | 1009.3 hPa | 0 mm | - | 138 W/m² | - |
| 1778173794 | 18.33° C | 96% | 1009.5 hPa | 0 mm | - | 380 W/m² | - |
| 1778173490 | 18.89° C | 97% | 1009.4 hPa | 0 mm | - | 140 W/m² | - |
| 1778173186 | 18.89° C | 98% | 1009.3 hPa | 0 mm | - | 75 W/m² | - |
| 1778172882 | 18.89° C | 99% | 1009.1 hPa | 0 mm | - | 88 W/m² | - |
| 1778172579 | 18.33° C | 99% | 1009.1 hPa | 0 mm | - | 132 W/m² | - |
| 1778172276 | 18.89° C | 99% | 1009.1 hPa | 0 mm | - | 472 W/m² | - |
| 1778171972 | 18.89° C | 99% | 1009.5 hPa | 0 mm | - | 772 W/m² | - |
| 1778171670 | 18.33° C | 99% | 1009.4 hPa | 0 mm | - | 812 W/m² | - |
| 1778171367 | 18.89° C | 99% | 1009.2 hPa | 0 mm | - | 597 W/m² | - |
| 1778171062 | 17.78° C | 99% | 1009.3 hPa | 0 mm | - | 538 W/m² | - |
| 1778170760 | 18.33° C | 99% | 1009.1 hPa | 0 mm | - | 755 W/m² | - |
| 1778170455 | 18.33° C | 99% | 1008.9 hPa | 0 mm | - | 49 W/m² | - |
* Rain latest hour (hover to see other rain measurements)
** Current wind speed in m/s (hover to see current wind gust speed)